Weather History for Hollywood, FL

Change the Weather History Date:

Sunday, December 2, 2012

  Actual Average (KFLL) Record (KFLL)
Temperature  
Mean Temperature 75 °F 73 °F  
Max Temperature 79 °F 80 °F 87 °F (1977)
Min Temperature 71 °F 67 °F 39 °F (1956)
Degree Days  
Heating Degree Days 0 0  
Month to date heating degree days 0  
Since 1 July heating degree days 2  
Cooling Degree Days 10 8  
Month to date cooling degree days 17  
Year to date cooling degree days 4530  
Growing Degree Days 25 (Base 50)    
Moisture  
Dew Point 63 °F    
Average Humidity 67    
Maximum Humidity 78    
Minimum Humidity 56    
Precipitation  
Precipitation 0.00 in 0.07 in 2.04 in (1983)
Month to date precipitation 0.14  
Year to date precipitation 59.86  
Snow  
Snow 0.00 in - - ()
Month to date snowfall  
Since 1 July snowfall  
Snow Depth -    
Sea Level Pressure  
Sea Level Pressure 30.19 in    
Wind  
Wind Speed 11 mph (ENE)    
Max Wind Speed 20 mph    
Max Gust Speed 28 mph    
Visibility 10 miles    
Events Rain    
T = Trace of Precipitation, MM = Missing Value Source: NWS Daily Summary

Daily Weather History Graph

Daily Weather History Graph

Search for Another Location

Airport:

Trip Planner

Search our weather history database for the weather conditions in past years. The results will help you decide how hot, cold, wet, or windy it might be!

Date:

Astronomy

Dec. 02, 2012 Rise Set
Actual Time 6:52 AM EST 5:29 PM EST
Civil Twilight 6:27 AM EST 5:54 PM EST
Nautical Twilight 5:58 AM EST 6:22 PM EST
Astronomical Twilight 5:30 AM EST 6:50 PM EST
Moon 9:05 PM EST (12/2) 9:48 AM EST (12/2)
Length of Visible Light 11h 27m
Length of Day
10h 37m
Waning Gibbous, 86% of the Moon is Illuminated
Dec 2
Waning Gibbous
Dec 6
Last Quarter
Dec 13
New
Dec 20
First Quarter
Dec 28
Full

Hourly Weather History & Observations

Time (EST) Temp. Dew Point Humidity Pressure Visibility Wind Dir Wind Speed Gust Speed Precip Events Conditions
12:53 AM 73.0 °F 63.0 °F 71% 30.19 in 10.0 mi ENE 10.4 mph - N/A   Mostly Cloudy
1:53 AM 73.0 °F 64.0 °F 73% 30.18 in 10.0 mi NE 10.4 mph - N/A   Partly Cloudy
2:29 AM 71.6 °F 64.4 °F 78% 30.17 in 10.0 mi East 5.8 mph - 0.00 in Rain Light Rain
2:53 AM 72.0 °F 64.0 °F 76% 30.17 in 10.0 mi NE 9.2 mph - 0.00 in   Overcast
3:10 AM 71.6 °F 64.4 °F 78% 30.16 in 10.0 mi ESE 5.8 mph 17.3 mph N/A   Overcast
3:33 AM 71.6 °F 64.4 °F 78% 30.16 in 10.0 mi NE 9.2 mph - 0.00 in   Scattered Clouds
3:53 AM 72.0 °F 63.0 °F 73% 30.17 in 10.0 mi NE 10.4 mph - 0.00 in   Partly Cloudy
4:53 AM 72.0 °F 63.0 °F 73% 30.17 in 10.0 mi ENE 10.4 mph - N/A   Scattered Clouds
5:53 AM 72.0 °F 63.0 °F 73% 30.19 in 10.0 mi ENE 10.4 mph - N/A   Clear
6:53 AM 72.0 °F 62.1 °F 71% 30.20 in 10.0 mi ENE 11.5 mph - N/A   Clear
7:53 AM 73.9 °F 63.0 °F 68% 30.22 in 10.0 mi ENE 15.0 mph 21.9 mph N/A   Partly Cloudy
8:53 AM 77.0 °F 62.1 °F 60% 30.23 in 10.0 mi NE 12.7 mph 21.9 mph N/A   Clear
9:53 AM 78.1 °F 62.1 °F 58% 30.25 in 10.0 mi NE 17.3 mph 27.6 mph N/A   Scattered Clouds
10:53 AM 79.0 °F 64.9 °F 62% 30.24 in 10.0 mi NE 16.1 mph - N/A   Overcast
11:53 AM 77.0 °F 64.9 °F 66% 30.22 in 10.0 mi East 17.3 mph - N/A   Mostly Cloudy
12:53 PM 78.1 °F 64.0 °F 62% 30.19 in 10.0 mi East 15.0 mph 25.3 mph 0.00 in   Mostly Cloudy
1:53 PM 78.1 °F 63.0 °F 60% 30.18 in 10.0 mi ENE 19.6 mph 26.5 mph 0.00 in   Overcast
2:53 PM 79.0 °F 64.0 °F 60% 30.17 in 8.0 mi ENE 19.6 mph 24.2 mph 0.00 in Rain Light Rain
3:53 PM 78.1 °F 61.0 °F 56% 30.17 in 10.0 mi East 12.7 mph 21.9 mph 0.00 in   Clear
4:53 PM 77.0 °F 63.0 °F 62% 30.17 in 10.0 mi East 13.8 mph - N/A   Scattered Clouds
5:53 PM 73.9 °F 61.0 °F 64% 30.18 in 10.0 mi East 12.7 mph - 0.00 in   Partly Cloudy
6:53 PM 73.9 °F 61.0 °F 64% 30.19 in 10.0 mi East 9.2 mph - N/A   Clear
7:53 PM 75.0 °F 60.1 °F 60% 30.20 in 10.0 mi ENE 13.8 mph - N/A   Mostly Cloudy
8:53 PM 73.9 °F 61.0 °F 64% 30.21 in 10.0 mi East 15.0 mph - N/A   Mostly Cloudy
9:53 PM 73.9 °F 61.0 °F 64% 30.21 in 10.0 mi East 12.7 mph - N/A   Mostly Cloudy
10:53 PM 72.0 °F 63.0 °F 73% 30.22 in 9.0 mi ENE 9.2 mph - 0.00 in   Mostly Cloudy
11:53 PM 72.0 °F 62.1 °F 71% 30.21 in 10.0 mi East 10.4 mph - 0.00 in   Mostly Cloudy